When you browse on this site, cookies collect data to enhance your experience and personalize the content and advertising you see.
Visit our Privacy Policy to learn more. By continuing to use the site, you agree to this use of cookies and data.
  • In United Kingdom
  • List of Countries
  • For 7 days
  • Water Temperature
  • Weather Map
  • Weather Widgets
  • user-avatar
    Login

    Hourly Weather Julkow

    Today, 23 February, Sunday

    Time Temperature Precipitation Wind Pressure Humidity
    00:00 +5°C° 0 mm 9 mps 744 mmHg 60%
    01:00 +6°C° 0 mm 9 mps 744 mmHg 61%
    02:00 +6°C° 0 mm 8 mps 744 mmHg 61%
    03:00 +5°C° 0.3 mm 8 mps 743 mmHg 66%
    04:00 +5°C° 0.3 mm 7 mps 743 mmHg 71%
    05:00 +4°C° 0.3 mm 7 mps 743 mmHg 76%
    06:00 +4°C° 0.1 mm 8 mps 743 mmHg 74%
    07:00 +2°C° 0.1 mm 8 mps 743 mmHg 73%
    08:00 +2°C° 0 mm 9 mps 744 mmHg 70%
    09:00 +2°C° 0.1 mm 9 mps 744 mmHg 67%
    10:00 +3°C° 0.1 mm 9 mps 743 mmHg 65%
    11:00 +3°C° 0.1 mm 9 mps 743 mmHg 62%
    12:00 +5°C° 0.2 mm 9 mps 743 mmHg 61%
    13:00 +5°C° 0.2 mm 9 mps 743 mmHg 59%
    14:00 +5°C° 0.2 mm 9 mps 743 mmHg 58%
    15:00 +5°C° 0.1 mm 8 mps 742 mmHg 61%
    16:00 +4°C° 0.1 mm 7 mps 741 mmHg 65%
    17:00 +4°C° 0.1 mm 7 mps 740 mmHg 69%
    18:00 +3°C° 0.1 mm 6 mps 739 mmHg 75%
    19:00 +3°C° 0.1 mm 5 mps 738 mmHg 82%
    20:00 +2°C° 0.1 mm 5 mps 737 mmHg 88%
    21:00 +3°C° 0.5 mm 4 mps 735 mmHg 90%
    22:00 +2°C° 0.5 mm 3 mps 734 mmHg 93%
    23:00 +2°C° 0.5 mm 3 mps 732 mmHg 95%

    Tomorrow, 24 February, Monday

    Time Temperature Precipitation Wind Pressure Humidity
    00:00 +2°C° 1.4 mm 3 mps 732 mmHg 95%
    01:00 +1°C° 1.4 mm 4 mps 732 mmHg 95%
    02:00 0°C° 1.4 mm 5 mps 732 mmHg 95%
    03:00 0°C° 0.9 mm 5 mps 733 mmHg 95%
    04:00 -1°C° 0.9 mm 6 mps 735 mmHg 95%
    05:00 -1°C° 0.9 mm 7 mps 736 mmHg 95%
    06:00 0°C° 0.4 mm 8 mps 737 mmHg 91%
    07:00 0°C° 0.4 mm 8 mps 739 mmHg 87%
    08:00 0°C° 0.4 mm 9 mps 740 mmHg 82%
    09:00 0°C° 0.2 mm 9 mps 741 mmHg 83%
    10:00 0°C° 0.2 mm 9 mps 742 mmHg 83%
    11:00 0°C° 0.2 mm 9 mps 742 mmHg 84%
    12:00 +2°C° 0.1 mm 9 mps 743 mmHg 75%
    13:00 +3°C° 0.1 mm 9 mps 744 mmHg 65%
    14:00 +5°C° 0.1 mm 9 mps 744 mmHg 56%
    15:00 +4°C° 0 mm 8 mps 745 mmHg 57%
    16:00 +4°C° 0 mm 6 mps 745 mmHg 58%
    17:00 +5°C° 0 mm 5 mps 745 mmHg 59%
    18:00 +3°C° 0 mm 5 mps 746 mmHg 64%
    19:00 +2°C° 0 mm 5 mps 746 mmHg 69%
    20:00 +1°C° 0 mm 5 mps 746 mmHg 74%
    21:00 +1°C° 0 mm 4 mps 746 mmHg 76%
    22:00 +2°C° 0 mm 3 mps 745 mmHg 78%
    23:00 +1°C° 0 mm 3 mps 745 mmHg 80%

    Day after tomorrow, 25 February, Tuesday

    Time Temperature Precipitation Wind Pressure Humidity
    00:00 +1°C° 0 mm 3 mps 744 mmHg 81%
    01:00 0°C° 0 mm 4 mps 744 mmHg 81%
    02:00 0°C° 0 mm 4 mps 743 mmHg 82%
    03:00 0°C° 0.3 mm 5 mps 742 mmHg 86%
    04:00 0°C° 0.3 mm 5 mps 741 mmHg 91%
    05:00 -2°C° 0.3 mm 6 mps 739 mmHg 96%
    06:00 -1°C° 1.1 mm 6 mps 738 mmHg 95%
    07:00 -1°C° 1.1 mm 6 mps 738 mmHg 94%
    08:00 -1°C° 1.1 mm 6 mps 737 mmHg 94%
    09:00 +2°C° 0.5 mm 6 mps 736 mmHg 93%
    10:00 +3°C° 0.5 mm 7 mps 736 mmHg 92%
    11:00 +4°C° 0.5 mm 7 mps 735 mmHg 92%
    12:00 +5°C° 0.1 mm 7 mps 735 mmHg 87%
    13:00 +6°C° 0.1 mm 7 mps 735 mmHg 83%
    14:00 +8°C° 0.1 mm 7 mps 735 mmHg 78%
    15:00 +8°C° 0.2 mm 7 mps 734 mmHg 80%
    16:00 +8°C° 0.2 mm 6 mps 734 mmHg 82%
    17:00 +7°C° 0.2 mm 5 mps 733 mmHg 84%
    18:00 +7°C° 0.4 mm 6 mps 733 mmHg 86%
    19:00 +7°C° 0.4 mm 6 mps 733 mmHg 88%
    20:00 +5°C° 0.4 mm 6 mps 733 mmHg 89%
    21:00 +5°C° 1.1 mm 6 mps 733 mmHg 88%
    22:00 +5°C° 1.1 mm 6 mps 733 mmHg 86%
    23:00 +5°C° 1.1 mm 6 mps 733 mmHg 84%

    26 February, Wednesday

    Time Temperature Precipitation Wind Pressure Humidity
    00:00 +4°C° 0.1 mm 6 mps 733 mmHg 80%
    01:00 +3°C° 0.1 mm 5 mps 733 mmHg 76%
    02:00 +2°C° 0.1 mm 5 mps 733 mmHg 72%
    03:00 +2°C° 0 mm 5 mps 733 mmHg 72%
    04:00 +1°C° 0 mm 5 mps 733 mmHg 73%
    05:00 +1°C° 0 mm 5 mps 733 mmHg 73%
    06:00 +1°C° 0 mm 5 mps 733 mmHg 74%
    07:00 0°C° 0 mm 5 mps 733 mmHg 74%
    08:00 0°C° 0 mm 4 mps 733 mmHg 75%
    09:00 +1°C° 0 mm 5 mps 733 mmHg 70%
    10:00 +2°C° 0 mm 6 mps 733 mmHg 65%
    11:00 +3°C° 0 mm 7 mps 733 mmHg 59%
    12:00 +4°C° 0 mm 6 mps 733 mmHg 55%
    13:00 +4°C° 0 mm 6 mps 733 mmHg 51%
    14:00 +5°C° 0 mm 6 mps 733 mmHg 47%
    15:00 +6°C° 0 mm 5 mps 732 mmHg 49%
    16:00 +6°C° 0 mm 4 mps 732 mmHg 50%
    17:00 +7°C° 0 mm 3 mps 732 mmHg 52%
    18:00 +5°C° 0 mm 3 mps 732 mmHg 56%
    19:00 +5°C° 0 mm 4 mps 733 mmHg 59%
    20:00 +4°C° 0 mm 4 mps 733 mmHg 63%
    21:00 +3°C° 0 mm 4 mps 733 mmHg 68%
    22:00 +3°C° 0 mm 3 mps 733 mmHg 74%
    23:00 +2°C° 0 mm 3 mps 733 mmHg 79%

    27 February, Thursday

    Time Temperature Precipitation Wind Pressure Humidity
    00:00 +2°C° 0 mm 3 mps 733 mmHg 78%
    01:00 +1°C° 0 mm 3 mps 734 mmHg 77%
    02:00 +1°C° 0 mm 3 mps 734 mmHg 76%
    03:00 +1°C° 0 mm 3 mps 734 mmHg 77%
    04:00 +1°C° 0 mm 3 mps 734 mmHg 79%
    05:00 -1°C° 0 mm 4 mps 734 mmHg 80%
    06:00 -1°C° 0 mm 4 mps 735 mmHg 81%
    07:00 -1°C° 0 mm 4 mps 735 mmHg 82%
    08:00 -1°C° 0 mm 4 mps 735 mmHg 83%
    09:00 0°C° 0 mm 5 mps 736 mmHg 79%
    10:00 0°C° 0 mm 5 mps 736 mmHg 76%
    11:00 +1°C° 0 mm 5 mps 736 mmHg 73%
    12:00 +1°C° 0 mm 5 mps 736 mmHg 70%
    13:00 +1°C° 0 mm 5 mps 737 mmHg 67%
    14:00 +2°C° 0 mm 5 mps 737 mmHg 65%
    15:00 +1°C° 0.1 mm 5 mps 737 mmHg 67%
    16:00 +1°C° 0.1 mm 5 mps 737 mmHg 69%
    17:00 +1°C° 0.1 mm 5 mps 737 mmHg 71%
    18:00 0°C° 0.1 mm 4 mps 738 mmHg 77%
    19:00 0°C° 0.1 mm 4 mps 738 mmHg 83%
    20:00 0°C° 0.1 mm 3 mps 738 mmHg 89%
    21:00 0°C° 0.1 mm 3 mps 738 mmHg 89%
    22:00 -1°C° 0.1 mm 2 mps 739 mmHg 89%
    23:00 +1°C° 0.1 mm 1 mps 739 mmHg 89%

    28 February, Friday

    Time Temperature Precipitation Wind Pressure Humidity
    00:00 +1°C° 0 mm 1 mps 739 mmHg 88%
    01:00 +1°C° 0 mm 1 mps 738 mmHg 87%
    02:00 +1°C° 0 mm 1 mps 738 mmHg 86%
    03:00 -1°C° 0 mm 2 mps 738 mmHg 87%
    04:00 -2°C° 0 mm 2 mps 737 mmHg 87%
    05:00 -2°C° 0 mm 2 mps 737 mmHg 87%
    06:00 -2°C° 0 mm 3 mps 736 mmHg 85%
    07:00 -2°C° 0 mm 4 mps 735 mmHg 83%
    08:00 -2°C° 0 mm 5 mps 735 mmHg 81%
    09:00 -1°C° 0 mm 5 mps 734 mmHg 76%
    10:00 -1°C° 0 mm 6 mps 733 mmHg 71%
    11:00 -1°C° 0 mm 7 mps 733 mmHg 66%
    12:00 -1°C° 0.5 mm 6 mps 732 mmHg 74%
    13:00 -1°C° 0.5 mm 6 mps 732 mmHg 81%
    14:00 -1°C° 0.5 mm 6 mps 731 mmHg 88%
    15:00 0°C° 0.3 mm 5 mps 732 mmHg 91%
    16:00 -1°C° 0.3 mm 5 mps 732 mmHg 93%
    17:00 -1°C° 0.3 mm 5 mps 732 mmHg 96%
    18:00 -1°C° 0.2 mm 5 mps 733 mmHg 94%
    19:00 -1°C° 0.2 mm 5 mps 734 mmHg 92%
    20:00 -2°C° 0.2 mm 6 mps 735 mmHg 90%
    21:00 -2°C° 0 mm 6 mps 736 mmHg 90%
    22:00 -2°C° 0 mm 6 mps 737 mmHg 89%
    23:00 -2°C° 0 mm 6 mps 738 mmHg 89%
    Show more